This demonstration page uses our WeatherBlox Daily Observations layout. Learn more.

Left ArrowRight Arrow

53.62937, 11.41316

Hourly Observations for June 4, 2019

Temp ( °F °C ) Dew Point ( °F °C ) Humidity (%) Winds ( mph kmh ) Pressure ( in mb ) Visibility ( mi km ) Precip ( " mm )
6:50 am 06:50 Mostly Cloudy 57 14 55 13 94 94 VRB 1 2 29.94 1014 30 48 N/A
7:20 am 07:20 Mostly Cloudy 59 15 55 13 88 88 ENE 1 2 29.94 1014 30 48 N/A
7:50 am 07:50 Mostly Cloudy 59 15 57 14 94 94 ENE 3 6 29.94 1014 30 48 N/A
8:20 am 08:20 Mostly Cloudy 59 15 54 12 82 82 E 3 6 29.97 1015 30 48 N/A
8:50 am 08:50 Mostly Cloudy 61 16 55 13 83 83 ENE 6 9 29.94 1014 30 48 N/A
9:20 am 09:20 Mostly Cloudy 61 16 55 13 83 83 E 3 6 29.94 1014 30 48 N/A
9:50 am 09:50 Mostly Cloudy 63 17 55 13 77 77 NNE 3 6 29.94 1014 30 48 N/A
10:20 am 10:20 Mostly Cloudy 63 17 55 13 77 77 NE 3 6 29.94 1014 30 48 N/A
10:50 am 10:50 Mostly Cloudy 63 17 55 13 77 77 NNW 3 6 29.94 1014 30 48 N/A
11:20 am 11:20 Mostly Cloudy 64 18 57 14 78 78 NNW 6 9 29.94 1014 30 48 N/A
11:50 am 11:50 Mostly Cloudy 66 19 57 14 73 73 NNW 8 13 29.94 1014 30 48 N/A
12:20 pm 12:20 Mostly Cloudy 64 18 55 13 73 73 NNW 8 13 29.94 1014 30 48 N/A
12:50 pm 12:50 Partly Cloudy 66 19 55 13 68 68 N 7 11 29.94 1014 30 48 N/A
1:20 pm 13:20 Mostly Sunny 68 20 55 13 64 64 N 9 15 29.94 1014 30 48 N/A
1:50 pm 13:50 Mostly Sunny 70 21 52 11 53 53 NE 10 17 29.91 1013 7 11 N/A
2:20 pm 14:20 Mostly Sunny 70 21 50 10 50 50 NE 13 20 29.91 1013 7 11 N/A
2:50 pm 14:50 Mostly Sunny 70 21 50 10 50 50 NE 12 19 29.91 1013 7 11 N/A
3:20 pm 15:20 Mostly Sunny 70 21 52 11 53 53 NNE 9 15 29.91 1013 7 11 N/A
3:50 pm 15:50 Mostly Sunny 70 21 52 11 53 53 NNE 10 17 29.88 1012 7 11 N/A
4:20 pm 16:20 Mostly Sunny 70 21 54 12 57 57 NNE 12 19 29.88 1012 7 11 N/A
4:50 pm 16:50 Mostly Sunny 70 21 50 10 50 50 ENE 14 22 29.88 1012 7 11 N/A
5:20 pm 17:20 Mostly Sunny 70 21 50 10 50 50 NE 13 20 29.85 1011 7 11 N/A
5:50 pm 17:50 Mostly Sunny 70 21 50 10 50 50 NE 9 15 29.85 1011 7 11 N/A
6:20 pm 18:20 Mostly Sunny 70 21 50 10 50 50 NE 9 15 29.85 1011 7 11 N/A
6:50 pm 18:50 Mostly Sunny 68 20 52 11 56 56 NNE 8 13 29.85 1011 7 11 N/A
7:20 pm 19:20 Mostly Sunny 68 20 52 11 56 56 NNE 7 11 29.82 1010 7 11 N/A
7:50 pm 19:50 Mostly Sunny 66 19 54 12 64 64 NE 7 11 29.82 1010 7 11 N/A
8:20 pm 20:20 Mostly Sunny 64 18 54 12 68 68 NE 8 13 29.82 1010 7 11 N/A
8:50 pm 20:50 Mostly Sunny 63 17 54 12 73 73 NE 6 9 29.80 1009 7 11 N/A
10:50 pm 22:50 Mostly Clear 59 15 55 13 88 88 ENE 5 7 29.77 1008 7 11 N/A
11:20 pm 23:20 Mostly Clear 59 15 55 13 88 88 ENE 5 7 29.77 1008 7 11 N/A
11:50 pm 23:50 Mostly Clear 59 15 57 14 94 94 ENE 6 9 29.77 1008 7 11 N/A

Powered by AerisWeather